Wind_Speed
34 33 32 31 30 29 29 29 28 28 28 28 29 29 30 30 31 31 31 32 32 33 34 35 36 37 38 39 40 40 39 39 38 37 36 36 36 34
34 32 30 29 28 28 28 28 28 28 28 29 30 30 31 32 33 33 33 33 34 34 34 35 36 37 38 40 41 41 41 40 40 39 37 35 36 36
30 29 28 28 28 28 28 27 28 28 29 31 32 32 33 34 34 35 35 35 35 35 35 35 36 37 38 39 40 41 41 40 39 38 38 37 36 36
28 28 27 27 27 27 28 28 29 29 30 31 33 33 34 35 36 36 37 37 36 36 36 36 35 36 37 39 39 40 40 40 39 37 37 37 36 37
27 27 26 26 27 27 28 28 29 30 31 32 33 34 35 35 36 36 37 37 36 36 36 35 35 35 35 36 37 38 39 39 39 38 37 36 36 37
24 24 25 25 25 26 26 27 28 29 30 32 33 34 35 35 35 36 36 36 36 36 35 36 35 34 34 35 35 36 37 37 37 36 36 35 36 37
22 22 22 22 22 23 24 25 27 28 29 30 32 33 34 34 35 35 35 35 36 36 35 34 34 34 34 33 32 32 33 34 34 34 33 33 34 36
19 19 19 19 20 21 22 23 24 25 26 28 29 30 31 32 33 34 34 34 34 34 34 33 32 32 32 31 30 30 30 31 31 32 32 33 35 36
16 16 17 17 18 18 19 19 20 22 24 25 27 28 29 31 32 32 33 33 32 32 31 31 31 31 30 29 29 28 28 28 29 30 32 34 36 38
13 14 14 13 14 14 16 17 19 21 23 25 27 29 31 32 33 33 33 33 32 31 30 30 29 29 28 27 26 25 25 26 27 29 32 33 36 40
10 10 10 11 11 13 14 16 18 21 23 26 28 29 30 31 32 33 33 32 32 31 30 30 29 28 27 26 25 24 23 25 27 27 31 35 36 37
7 8 8 10 11 12 14 16 19 22 23 25 26 27 28 29 30 30 31 30 30 29 29 29 29 28 27 26 25 24 23 23 25 26 28 30 32 34
6 7 9 10 11 13 15 17 19 21 23 25 26 27 27 27 27 27 27 27 27 26 26 26 26 26 26 25 24 23 22 22 22 24 25 26 28 31
7 8 9 10 12 13 15 17 19 21 23 25 26 27 27 27 26 26 26 25 25 24 23 23 23 24 24 24 24 24 23 22 21 21 22 24 25 27
8 9 10 11 12 13 15 17 19 21 23 25 26 26 27 26 26 25 25 24 23 22 22 21 22 22 23 23 24 24 25 24 23 21 21 20 21 24
10 10 11 11 12 14 15 17 19 21 23 24 25 26 26 26 26 25 24 23 22 21 21 20 20 21 21 22 23 24 25 25 25 23 23 23 24 24
12 12 12 12 13 14 14 16 18 20 22 23 25 25 26 26 26 25 24 23 22 21 21 21 20 21 20 21 22 24 25 26 28 28 27 26 27 27
13 13 13 13 14 14 14 15 17 20 21 23 24 25 26 27 27 26 25 24 23 22 21 20 20 21 21 20 21 22 24 26 28 29 30 30 30 30
15 15 15 15 15 15 15 16 17 19 21 22 24 26 27 28 29 28 26 25 24 23 22 21 21 21 21 21 21 22 24 26 29 30 31 32 34 35
17 16 16 16 16 16 15 16 17 18 20 22 24 26 28 29 30 30 28 27 26 24 23 22 22 22 22 22 22 23 23 25 28 31 32 34 35 37
18 18 18 17 17 17 17 16 17 19 20 22 24 26 28 30 31 31 30 29 27 26 24 23 22 22 22 22 23 23 24 25 27 30 32 34 36 37
19 19 19 19 19 18 17 17 18 18 20 21 24 27 29 31 32 33 32 31 29 27 26 24 23 23 23 23 23 23 24 25 27 29 32 33 35 37
20 21 21 21 20 19 19 18 19 20 21 23 25 28 30 32 33 34 34 32 31 29 28 26 24 24 23 23 23 24 24 25 26 28 30 32 34 37
Wind_Direction
266 263 262 261 263 266 269 271 271 272 274 277 280 282 285 286 287 288 288 287 286 284 281 278 276 272 268 265 263 262 261 260 259 257 256 254 248 240
262 260 259 261 264 266 269 271 272 273 276 278 281 283 285 285 286 288 289 288 288 287 284 280 277 274 269 266 264 262 260 259 257 256 256 252 248 241
257 258 259 261 263 266 268 271 273 275 277 279 281 283 284 285 286 286 287 288 287 287 286 283 279 275 272 269 266 262 259 258 256 256 255 252 247 239
256 258 260 262 264 267 270 272 275 277 279 281 283 284 285 285 285 286 286 286 286 286 285 283 281 277 274 269 266 262 259 256 255 254 253 249 246 237
255 256 258 262 266 269 272 274 276 278 281 282 284 285 285 286 286 285 285 285 285 284 284 284 281 277 274 270 267 262 258 256 254 251 249 247 244 237
251 255 259 263 267 270 274 277 279 281 283 284 285 286 286 287 286 286 285 284 283 283 284 284 283 280 276 273 267 263 258 254 250 247 245 243 240 235
249 254 258 263 268 272 276 280 282 284 285 287 288 289 288 288 287 286 285 284 283 282 282 282 281 280 277 275 269 265 259 253 248 243 240 238 235 231
248 254 260 266 271 275 280 284 287 289 291 293 293 292 292 291 290 289 287 285 284 282 281 280 280 279 277 275 270 265 260 251 245 240 235 233 231 226
251 257 263 268 273 279 285 289 294 297 298 299 299 299 297 295 293 291 289 286 284 282 281 280 279 279 278 276 272 267 260 252 240 236 233 229 227 224
253 259 266 272 277 285 291 297 301 303 304 304 303 302 300 298 296 293 291 288 285 281 279 278 277 279 278 278 277 267 259 253 241 232 229 227 226 223
254 262 272 281 289 295 300 304 306 307 307 307 306 305 303 301 299 297 294 290 287 283 279 276 274 275 275 275 276 272 264 256 247 235 229 228 226 226
258 271 282 291 297 302 306 309 311 312 312 312 312 311 309 307 304 301 297 293 289 285 280 276 273 270 271 272 272 269 266 257 252 242 233 230 228 228
266 279 289 295 300 305 309 313 315 316 318 320 319 318 316 313 311 307 303 299 294 288 282 277 273 270 267 266 266 264 264 260 256 251 242 237 233 232
269 280 290 297 302 308 312 316 319 322 324 325 325 324 322 320 317 313 308 305 300 295 289 281 274 270 266 263 262 261 258 257 258 256 252 246 243 239
277 284 290 296 302 309 314 319 323 326 328 329 329 328 326 324 321 317 312 307 304 299 295 288 278 272 267 263 259 257 257 255 253 254 254 251 248 245
281 285 288 294 301 308 314 320 324 328 331 332 331 330 329 327 324 320 315 310 306 302 297 292 284 276 269 263 259 256 255 254 252 250 248 247 247 246
280 282 285 291 298 305 310 318 324 328 331 333 333 333 332 331 329 325 320 314 309 304 300 295 288 282 275 267 260 255 253 251 250 249 248 246 243 241
276 278 282 287 293 299 308 318 325 330 334 335 335 336 336 335 333 329 323 318 313 309 303 297 292 285 278 271 263 257 252 249 248 248 247 246 244 242
273 275 279 284 290 297 306 316 324 331 335 336 337 337 337 336 334 331 327 322 317 311 305 299 293 288 281 274 267 261 255 250 247 246 245 244 245 245
272 274 277 282 288 295 303 312 321 328 332 335 337 337 337 337 335 333 330 326 321 314 308 302 295 290 284 278 271 266 260 253 249 247 245 245 245 245
272 273 276 279 285 292 299 307 316 323 329 332 335 336 337 337 336 335 332 328 324 319 313 307 301 294 289 283 276 270 265 259 253 249 246 245 244 244
273 274 276 278 281 287 293 300 308 316 323 329 333 335 336 336 337 337 334 331 327 323 317 311 304 298 293 287 282 276 269 265 259 253 249 248 246 245
274 274 275 276 278 283 288 294 302 310 317 323 328 332 335 336 337 337 336 333 329 326 320 314 309 303 297 291 287 281 276 270 265 260 255 251 249 247
Height
5772 5772 5773 5774 5775 5776 5777 5778 5780 5780 5780 5780 5779 5778 5778 5777 5776 5776 5775 5775 5774 5774 5773 5773 5773 5773 5774 5775 5776 5777 5778 5780 5782 5784 5785 5787 5788 5791
5763 5764 5765 5766 5768 5769 5770 5771 5771 5772 5772 5771 5771 5770 5769 5769 5768 5767 5766 5765 5764 5764 5763 5763 5762 5762 5763 5764 5765 5766 5767 5769 5771 5773 5775 5777 5779 5782
5755 5757 5758 5759 5761 5762 5763 5764 5764 5764 5764 5764 5763 5762 5761 5760 5759 5758 5757 5756 5755 5754 5753 5752 5752 5752 5752 5752 5753 5754 5756 5758 5759 5762 5764 5767 5769 5772
5747 5749 5751 5752 5753 5755 5756 5756 5757 5756 5756 5755 5754 5754 5753 5751 5750 5749 5748 5747 5746 5744 5743 5742 5741 5741 5741 5741 5741 5743 5744 5746 5748 5751 5753 5756 5759 5762
5740 5742 5744 5746 5747 5748 5749 5749 5748 5748 5747 5747 5746 5745 5743 5742 5741 5739 5738 5737 5736 5734 5734 5732 5731 5730 5730 5730 5730 5731 5732 5735 5737 5739 5742 5745 5748 5751
5733 5735 5737 5739 5740 5741 5741 5741 5740 5740 5739 5738 5737 5736 5734 5732 5731 5730 5728 5727 5725 5724 5723 5722 5721 5720 5719 5719 5719 5720 5721 5723 5725 5728 5731 5734 5737 5741
5727 5729 5731 5732 5733 5734 5734 5733 5733 5732 5731 5730 5728 5727 5725 5723 5722 5720 5718 5717 5716 5715 5714 5712 5711 5710 5710 5709 5708 5709 5710 5712 5714 5717 5720 5724 5727 5731
5722 5724 5725 5726 5727 5727 5727 5726 5726 5725 5723 5722 5720 5718 5716 5714 5712 5710 5709 5708 5706 5705 5704 5703 5702 5701 5700 5700 5699 5699 5701 5702 5705 5708 5711 5715 5718 5722
5717 5718 5719 5720 5721 5721 5721 5720 5719 5718 5717 5715 5713 5710 5708 5706 5703 5701 5699 5698 5696 5695 5694 5693 5692 5692 5691 5690 5690 5691 5692 5693 5695 5698 5702 5705 5709 5713
5712 5713 5714 5715 5715 5716 5715 5714 5713 5712 5710 5708 5706 5703 5700 5698 5695 5693 5690 5688 5686 5685 5685 5684 5683 5683 5683 5682 5682 5682 5683 5685 5686 5689 5693 5696 5699 5703
5708 5709 5710 5711 5711 5711 5710 5709 5708 5707 5705 5702 5699 5696 5693 5689 5686 5683 5681 5679 5677 5676 5675 5675 5674 5674 5674 5674 5675 5675 5676 5677 5679 5681 5684 5687 5691 5694
5704 5705 5706 5707 5707 5706 5706 5705 5703 5701 5699 5696 5693 5689 5685 5682 5678 5675 5672 5669 5667 5666 5665 5665 5665 5666 5666 5666 5667 5668 5669 5670 5672 5674 5676 5679 5682 5686
5701 5702 5703 5703 5703 5702 5701 5700 5698 5696 5693 5689 5686 5682 5678 5675 5671 5667 5664 5661 5659 5657 5657 5656 5656 5657 5658 5659 5660 5660 5662 5663 5664 5666 5669 5671 5674 5678
5699 5699 5699 5699 5699 5698 5697 5695 5693 5691 5687 5684 5680 5676 5672 5668 5665 5661 5658 5654 5652 5650 5649 5648 5648 5648 5649 5650 5652 5653 5654 5656 5658 5660 5662 5665 5668 5671
5695 5696 5696 5696 5695 5694 5693 5691 5689 5685 5682 5679 5675 5671 5667 5663 5659 5655 5652 5649 5646 5644 5642 5641 5641 5641 5642 5643 5644 5645 5647 5649 5651 5653 5655 5658 5661 5664
5692 5692 5692 5692 5691 5690 5689 5687 5684 5681 5678 5674 5670 5666 5662 5658 5654 5650 5646 5643 5641 5639 5637 5635 5634 5634 5634 5635 5636 5638 5639 5641 5643 5646 5648 5651 5654 5657
5688 5689 5689 5688 5688 5687 5685 5683 5680 5677 5674 5670 5666 5662 5658 5654 5650 5645 5642 5638 5636 5633 5631 5630 5628 5627 5628 5628 5628 5630 5631 5633 5635 5637 5640 5643 5646 5649
5684 5685 5684 5684 5683 5682 5681 5679 5676 5673 5670 5666 5662 5658 5654 5650 5645 5641 5637 5634 5630 5628 5626 5624 5622 5621 5621 5621 5622 5622 5623 5624 5626 5628 5631 5634 5637 5640
5680 5680 5680 5680 5679 5678 5676 5674 5672 5669 5666 5662 5658 5654 5650 5646 5641 5637 5633 5629 5625 5622 5620 5618 5616 5615 5614 5614 5614 5614 5615 5616 5618 5619 5622 5624 5627 5630
5675 5675 5675 5675 5674 5673 5671 5670 5668 5665 5662 5659 5655 5651 5646 5642 5637 5632 5628 5623 5619 5616 5613 5611 5609 5607 5606 5606 5606 5606 5607 5608 5609 5610 5612 5614 5617 5619
5670 5670 5670 5670 5669 5668 5666 5665 5663 5661 5658 5655 5651 5647 5643 5638 5633 5628 5622 5618 5614 5610 5607 5604 5602 5600 5599 5598 5598 5597 5598 5599 5599 5601 5602 5604 5606 5609
5664 5664 5664 5664 5663 5663 5662 5660 5658 5656 5654 5651 5647 5643 5639 5634 5628 5623 5618 5613 5608 5604 5600 5598 5595 5593 5591 5590 5589 5589 5589 5589 5589 5590 5592 5594 5595 5598
5658 5658 5658 5658 5657 5657 5656 5655 5653 5651 5649 5646 5643 5639 5634 5629 5624 5618 5613 5607 5603 5598 5594 5591 5588 5585 5583 5582 5581 5580 5580 5580 5580 5580 5581 5582 5584 5586